• In Lithuania
  • List of Countries
  • For 7 days
  • Water Temperature
  • Satellite Maps
  • Weather Map
  • Weather Widgets
  • user-avatar
    Login

    Hourly Weather Warburg

    Today, 24 October, Tuesday

    Time Temperature Precipitation Wind Pressure Humidity
    00:00 +9°C° 0 mm 2 mps 745 mmHg 96%
    01:00 +8°C° 0 mm 2 mps 746 mmHg 97%
    02:00 +8°C° 0 mm 2 mps 746 mmHg 97%
    03:00 +8°C° 0 mm 2 mps 746 mmHg 97%
    04:00 +8°C° 0 mm 2 mps 746 mmHg 97%
    05:00 +8°C° 0 mm 2 mps 746 mmHg 96%
    06:00 +9°C° 0 mm 2 mps 746 mmHg 96%
    07:00 +9°C° 0 mm 2 mps 746 mmHg 95%
    08:00 +10°C° 0 mm 3 mps 746 mmHg 94%
    09:00 +10°C° 0 mm 3 mps 746 mmHg 92%
    10:00 +11°C° 0 mm 3 mps 746 mmHg 90%
    11:00 +12°C° 0 mm 3 mps 746 mmHg 89%
    12:00 +12°C° 0 mm 3 mps 746 mmHg 89%
    13:00 +13°C° 0 mm 4 mps 746 mmHg 88%
    14:00 +13°C° 0.3 mm 4 mps 746 mmHg 89%
    15:00 +13°C° 0.3 mm 4 mps 746 mmHg 90%
    16:00 +13°C° 0.3 mm 3 mps 745 mmHg 91%
    17:00 +13°C° 1.1 mm 4 mps 745 mmHg 92%
    18:00 +13°C° 1.1 mm 4 mps 745 mmHg 93%
    19:00 +13°C° 1.1 mm 4 mps 745 mmHg 94%
    20:00 +13°C° 0.1 mm 4 mps 745 mmHg 95%
    21:00 +13°C° 0.1 mm 4 mps 745 mmHg 95%
    22:00 +13°C° 0.1 mm 4 mps 745 mmHg 95%
    23:00 +13°C° 0 mm 4 mps 745 mmHg 95%

    Tomorrow, 25 October, Wednesday

    Time Temperature Precipitation Wind Pressure Humidity
    00:00 +13°C° 0 mm 4 mps 745 mmHg 95%
    01:00 +13°C° 0 mm 4 mps 745 mmHg 95%
    02:00 +13°C° 0 mm 4 mps 745 mmHg 95%
    03:00 +13°C° 0 mm 4 mps 745 mmHg 95%
    04:00 +13°C° 0 mm 4 mps 745 mmHg 94%
    05:00 +13°C° 0 mm 4 mps 745 mmHg 94%
    06:00 +13°C° 0 mm 4 mps 745 mmHg 93%
    07:00 +13°C° 0 mm 4 mps 746 mmHg 93%
    08:00 +13°C° 0 mm 5 mps 746 mmHg 90%
    09:00 +14°C° 0 mm 5 mps 746 mmHg 87%
    10:00 +15°C° 0 mm 5 mps 746 mmHg 84%
    11:00 +15°C° 0 mm 5 mps 746 mmHg 83%
    12:00 +15°C° 0 mm 5 mps 746 mmHg 81%
    13:00 +16°C° 0 mm 5 mps 746 mmHg 80%
    14:00 +15°C° 0 mm 4 mps 746 mmHg 81%
    15:00 +15°C° 0 mm 4 mps 746 mmHg 83%
    16:00 +16°C° 0 mm 3 mps 747 mmHg 85%
    17:00 +14°C° 0 mm 3 mps 747 mmHg 87%
    18:00 +13°C° 0 mm 3 mps 747 mmHg 90%
    19:00 +14°C° 0 mm 2 mps 748 mmHg 93%
    20:00 +13°C° 0 mm 2 mps 748 mmHg 94%
    21:00 +13°C° 0 mm 2 mps 748 mmHg 94%
    22:00 +13°C° 0 mm 2 mps 748 mmHg 94%
    23:00 +13°C° 0 mm 2 mps 748 mmHg 95%

    Day after tomorrow, 26 October, Thursday

    Time Temperature Precipitation Wind Pressure Humidity
    00:00 +12°C° 0 mm 2 mps 748 mmHg 96%
    01:00 +12°C° 0 mm 2 mps 748 mmHg 96%
    02:00 +12°C° 0 mm 2 mps 748 mmHg 96%
    03:00 +12°C° 0 mm 2 mps 748 mmHg 95%
    04:00 +12°C° 0 mm 2 mps 748 mmHg 95%
    05:00 +12°C° 0 mm 2 mps 748 mmHg 95%
    06:00 +12°C° 0 mm 2 mps 748 mmHg 95%
    07:00 +10°C° 0 mm 2 mps 747 mmHg 94%
    08:00 +12°C° 0 mm 2 mps 747 mmHg 91%
    09:00 +12°C° 0 mm 3 mps 747 mmHg 87%
    10:00 +13°C° 0 mm 3 mps 747 mmHg 83%
    11:00 +14°C° 0 mm 3 mps 747 mmHg 80%
    12:00 +16°C° 0 mm 3 mps 747 mmHg 77%
    13:00 +17°C° 0 mm 4 mps 747 mmHg 74%
    14:00 +17°C° 0 mm 3 mps 747 mmHg 76%
    15:00 +17°C° 0 mm 3 mps 746 mmHg 79%
    16:00 +17°C° 0 mm 2 mps 746 mmHg 81%
    17:00 +16°C° 0 mm 2 mps 746 mmHg 86%
    18:00 +15°C° 0 mm 2 mps 746 mmHg 90%
    19:00 +14°C° 0 mm 2 mps 746 mmHg 94%
    20:00 +13°C° 0 mm 2 mps 746 mmHg 94%
    21:00 +13°C° 0 mm 2 mps 746 mmHg 94%
    22:00 +13°C° 0 mm 2 mps 746 mmHg 94%
    23:00 +12°C° 0 mm 3 mps 746 mmHg 94%

    27 October, Friday

    Time Temperature Precipitation Wind Pressure Humidity
    00:00 +12°C° 0 mm 3 mps 746 mmHg 94%
    01:00 +12°C° 0 mm 3 mps 746 mmHg 94%
    02:00 +12°C° 0.1 mm 3 mps 746 mmHg 94%
    03:00 +12°C° 0.1 mm 3 mps 745 mmHg 94%
    04:00 +12°C° 0.1 mm 3 mps 745 mmHg 94%
    05:00 +11°C° 0.1 mm 3 mps 745 mmHg 94%
    06:00 +11°C° 0.1 mm 3 mps 744 mmHg 93%
    07:00 +11°C° 0.1 mm 3 mps 744 mmHg 93%
    08:00 +11°C° 0.8 mm 3 mps 744 mmHg 93%
    09:00 +10°C° 0.8 mm 3 mps 744 mmHg 92%
    10:00 +10°C° 0.8 mm 4 mps 744 mmHg 92%
    11:00 +10°C° 1 mm 4 mps 744 mmHg 90%
    12:00 +10°C° 1 mm 4 mps 744 mmHg 89%
    13:00 +8°C° 1 mm 5 mps 744 mmHg 87%
    14:00 +8°C° 0.2 mm 5 mps 744 mmHg 86%
    15:00 +9°C° 0.2 mm 5 mps 744 mmHg 84%
    16:00 +9°C° 0.2 mm 5 mps 744 mmHg 82%
    17:00 +8°C° 0 mm 5 mps 745 mmHg 85%
    18:00 +8°C° 0 mm 5 mps 745 mmHg 87%
    19:00 +7°C° 0 mm 5 mps 745 mmHg 90%
    20:00 +7°C° 0 mm 4 mps 746 mmHg 91%
    21:00 +7°C° 0 mm 4 mps 746 mmHg 92%
    22:00 +7°C° 0 mm 4 mps 746 mmHg 92%
    23:00 +6°C° 0 mm 4 mps 746 mmHg 92%

    28 October, Saturday

    Time Temperature Precipitation Wind Pressure Humidity
    00:00 +6°C° 0 mm 4 mps 746 mmHg 92%
    01:00 +6°C° 0 mm 4 mps 746 mmHg 93%
    02:00 +6°C° 0.1 mm 4 mps 746 mmHg 92%
    03:00 +6°C° 0.1 mm 4 mps 745 mmHg 91%
    04:00 +7°C° 0.1 mm 4 mps 745 mmHg 90%
    05:00 +7°C° 0.2 mm 4 mps 745 mmHg 90%
    06:00 +6°C° 0.2 mm 5 mps 745 mmHg 90%
    07:00 +6°C° 0.2 mm 5 mps 744 mmHg 91%
    08:00 +7°C° 0.3 mm 5 mps 744 mmHg 90%
    09:00 +7°C° 0.3 mm 6 mps 744 mmHg 89%
    10:00 +7°C° 0.3 mm 6 mps 744 mmHg 88%
    11:00 +8°C° 0.2 mm 6 mps 743 mmHg 88%
    12:00 +8°C° 0.2 mm 6 mps 743 mmHg 88%
    13:00 +8°C° 0.2 mm 6 mps 743 mmHg 88%
    14:00 +8°C° 0.1 mm 6 mps 742 mmHg 89%
    15:00 +8°C° 0.1 mm 6 mps 742 mmHg 89%
    16:00 +8°C° 0.1 mm 6 mps 742 mmHg 90%
    17:00 +8°C° 0.1 mm 6 mps 742 mmHg 90%
    18:00 +8°C° 0.1 mm 5 mps 742 mmHg 91%
    19:00 +8°C° 0.1 mm 5 mps 742 mmHg 91%
    20:00 +8°C° 0.1 mm 5 mps 742 mmHg 91%
    21:00 +8°C° 0.1 mm 5 mps 742 mmHg 91%
    22:00 +8°C° 0.1 mm 5 mps 742 mmHg 91%
    23:00 +8°C° 0.1 mm 5 mps 742 mmHg 91%

    29 October, Sunday

    Time Temperature Precipitation Wind Pressure Humidity
    00:00 +8°C° 0.1 mm 5 mps 742 mmHg 91%
    01:00 +8°C° 0.1 mm 5 mps 743 mmHg 90%
    02:00 +8°C° 0.1 mm 5 mps 742 mmHg 90%
    03:00 +8°C° 0.1 mm 4 mps 742 mmHg 90%
    04:00 +7°C° 0.1 mm 4 mps 742 mmHg 90%
    05:00 +7°C° 0.1 mm 4 mps 742 mmHg 91%
    06:00 +7°C° 0.1 mm 4 mps 742 mmHg 91%
    07:00 +8°C° 0.1 mm 3 mps 742 mmHg 92%
    08:00 +8°C° 0 mm 4 mps 742 mmHg 90%
    09:00 +8°C° 0 mm 4 mps 742 mmHg 88%
    10:00 +10°C° 0 mm 4 mps 742 mmHg 86%
    11:00 +10°C° 0.1 mm 4 mps 742 mmHg 87%
    12:00 +10°C° 0.1 mm 4 mps 741 mmHg 89%
    13:00 +10°C° 0.1 mm 4 mps 741 mmHg 90%
    14:00 +10°C° 0.7 mm 4 mps 740 mmHg 91%
    15:00 +9°C° 0.7 mm 5 mps 740 mmHg 92%
    16:00 +8°C° 0.7 mm 5 mps 739 mmHg 93%
    17:00 +8°C° 0.3 mm 5 mps 739 mmHg 92%
    18:00 +8°C° 0.3 mm 5 mps 739 mmHg 92%
    19:00 +8°C° 0.3 mm 5 mps 738 mmHg 91%
    20:00 +8°C° 0.1 mm 5 mps 738 mmHg 92%
    21:00 +8°C° 0.1 mm 4 mps 738 mmHg 92%
    22:00 +8°C° 0.1 mm 4 mps 738 mmHg 92%
    23:00 +8°C° 0.1 mm 4 mps 737 mmHg 91%

    30 October, Monday

    Time Temperature Precipitation Wind Pressure Humidity
    00:00 +8°C° 0.1 mm 5 mps 737 mmHg 90%
    01:00 +8°C° 0.1 mm 5 mps 737 mmHg 90%
    02:00 +8°C° 0.1 mm 5 mps 737 mmHg 89%
    03:00 +7°C° 0.1 mm 5 mps 737 mmHg 89%
    04:00 +7°C° 0.1 mm 5 mps 736 mmHg 89%
    05:00 +7°C° 0.1 mm 5 mps 736 mmHg 88%
    06:00 +7°C° 0.1 mm 5 mps 737 mmHg 88%
    07:00 +7°C° 0.1 mm 5 mps 737 mmHg 87%
    08:00 +7°C° 0.2 mm 5 mps 737 mmHg 86%
    09:00 +7°C° 0.2 mm 5 mps 737 mmHg 85%
    10:00 +7°C° 0.2 mm 5 mps 737 mmHg 85%
    11:00 +7°C° 0.1 mm 6 mps 737 mmHg 84%
    12:00 +7°C° 0.1 mm 6 mps 737 mmHg 83%
    13:00 +7°C° 0.1 mm 6 mps 737 mmHg 82%
    14:00 +7°C° 0.1 mm 6 mps 737 mmHg 82%
    15:00 +6°C° 0.1 mm 7 mps 737 mmHg 82%
    16:00 +6°C° 0.1 mm 7 mps 736 mmHg 82%
    17:00 +6°C° 0.3 mm 7 mps 737 mmHg 83%
    18:00 +5°C° 0.3 mm 7 mps 737 mmHg 85%
    19:00 +5°C° 0.3 mm 7 mps 737 mmHg 86%
    20:00 +5°C° 0.4 mm 7 mps 737 mmHg 85%
    21:00 +5°C° 0.4 mm 7 mps 738 mmHg 85%
    22:00 +5°C° 0.4 mm 7 mps 738 mmHg 84%
    23:00 +5°C° 0.1 mm 7 mps 738 mmHg 84%
    Show more